MAS122 YSSY-WMKK

Flight info

Callsign MAS122
Flight time N/A
Altitude 34000
Route KADOM DCT BTH DCT AKNEV DCT UNSUS DCT PKEEB DCT PKEEA DCT GAVAS DCT OB2WF DCT ISGEL DCT APOMA/N0498F360 A576 LEKAD/N0498F380 A576 ATMAP/N0487F400 M635 JUNHA DCT WSSS DCT RKJ06 DCT RUNEM DCT SADAR DCT MASBO GUPTA3K
Aircraft A388/J-SADE2E3FGHIJ3J4J5M1RWXY/LB1D1

Departure

Time 2026-05-04 08:47
Airport Sydney Kingsford Smith International Airport (YSSY)

Arrival

Time N/A
Airport Kuala Lumpur International Airport (WMKK)
Time Latitude Longitude Altitude Speed Heading
2026-05-04 07:51 -33.93885 151.16662 26 ft 0 kts 257°
2026-05-04 08:33 -33.93839 151.16731 32 ft 3 kts 188°
2026-05-04 08:33 -33.93816 151.16731 31 ft 3 kts 170°
2026-05-04 08:35 -33.93800 151.16727 31 ft 0 kts 163°
2026-05-04 08:37 -33.93869 151.16752 32 ft 9 kts 163°
2026-05-04 08:37 -33.93960 151.16785 29 ft 15 kts 165°
2026-05-04 08:37 -33.94067 151.16818 29 ft 17 kts 166°
2026-05-04 08:38 -33.94179 151.16850 27 ft 18 kts 167°
2026-05-04 08:38 -33.94305 151.16883 28 ft 19 kts 168°
2026-05-04 08:38 -33.94407 151.16952 28 ft 15 kts 94°
2026-05-04 08:40 -33.94562 151.17377 31 ft 19 kts 168°
2026-05-04 08:40 -33.94716 151.17417 30 ft 26 kts 168°
2026-05-04 08:40 -33.94904 151.17468 30 ft 29 kts 167°
2026-05-04 08:41 -33.95098 151.17517 28 ft 29 kts 168°
2026-05-04 08:41 -33.95296 151.17566 24 ft 29 kts 168°
2026-05-04 08:41 -33.95490 151.17619 28 ft 28 kts 167°
2026-05-04 08:41 -33.95680 151.17667 29 ft 27 kts 164°
2026-05-04 08:42 -33.95865 151.17717 27 ft 28 kts 170°
2026-05-04 08:42 -33.96055 151.17766 29 ft 27 kts 167°
2026-05-04 08:42 -33.96242 151.17811 27 ft 28 kts 162°
2026-05-04 08:42 -33.96293 151.17878 28 ft 0 kts 88°
2026-05-04 08:43 -33.96292 151.17890 28 ft 2 kts 75°
2026-05-04 08:43 -33.96291 151.17891 28 ft 0 kts 75°
2026-05-04 08:46 -33.95801 151.17902 26 ft 89 kts 348°
2026-05-04 08:46 -33.94983 151.17691 28 ft 146 kts 348°
2026-05-04 08:46 -33.93884 151.17409 112 ft 172 kts 349°
2026-05-04 08:46 -33.92712 151.17107 606 ft 177 kts 350°
2026-05-04 08:47 -33.91532 151.16740 1172 ft 173 kts 341°
2026-05-04 08:47 -33.90619 151.15875 1849 ft 165 kts 310°
2026-05-04 08:47 -33.90051 151.14643 2180 ft 181 kts 295°
2026-05-04 08:47 -33.89914 151.13042 2351 ft 200 kts 275°
2026-05-04 08:48 -33.89842 151.11331 2488 ft 219 kts 284°
2026-05-04 08:48 -33.89416 151.09494 2892 ft 232 kts 295°
2026-05-04 08:48 -33.88710 151.07714 3248 ft 244 kts 303°
2026-05-04 08:48 -33.87832 151.05956 3940 ft 244 kts 306°
2026-05-04 08:49 -33.86912 151.04247 4645 ft 245 kts 306°
2026-05-04 08:50 -33.83192 150.92635 8226 ft 260 kts 287°
2026-05-04 08:50 -33.82772 150.90503 8867 ft 262 kts 287°
2026-05-04 08:51 -33.82363 150.88385 9479 ft 265 kts 287°
2026-05-04 08:51 -33.81948 150.86220 10088 ft 268 kts 287°
2026-05-04 08:51 -33.81537 150.84062 10675 ft 269 kts 287°
2026-05-04 08:51 -33.81117 150.81864 11245 ft 271 kts 287°
2026-05-04 08:52 -33.80693 150.79642 11796 ft 274 kts 287°
2026-05-04 08:52 -33.80263 150.77400 12382 ft 276 kts 287°
2026-05-04 08:52 -33.79833 150.75155 12878 ft 280 kts 287°
2026-05-04 08:52 -33.79382 150.72824 13036 ft 296 kts 287°
2026-05-04 08:53 -33.78904 150.70347 13164 ft 312 kts 286°
2026-05-04 08:54 -33.74972 150.49964 14342 ft 393 kts 285°
2026-05-04 08:55 -33.74356 150.46781 14758 ft 394 kts 286°
2026-05-04 08:55 -33.73733 150.43571 15186 ft 395 kts 285°
2026-05-04 08:55 -33.73110 150.40368 15556 ft 397 kts 285°
2026-05-04 08:55 -33.72477 150.37119 15883 ft 399 kts 285°
2026-05-04 08:57 -33.64652 150.15955 18411 ft 406 kts 300°
2026-05-04 09:01 -33.45363 149.74191 23059 ft 420 kts 300°
2026-05-04 09:01 -33.43943 149.71134 23624 ft 418 kts 300°
2026-05-04 09:01 -33.42537 149.68111 23806 ft 423 kts 300°
2026-05-04 09:01 -33.41104 149.65031 24115 ft 425 kts 300°
2026-05-04 09:02 -33.39725 149.61890 24473 ft 426 kts 298°
2026-05-04 09:02 -33.38413 149.58724 24851 ft 428 kts 297°
2026-05-04 09:02 -33.37107 149.55553 25227 ft 429 kts 297°
2026-05-04 09:02 -33.35776 149.52345 25606 ft 431 kts 298°
2026-05-04 09:03 -33.34432 149.49133 26062 ft 430 kts 298°
2026-05-04 09:03 -33.33083 149.45930 26411 ft 433 kts 298°
2026-05-04 09:03 -33.31727 149.42721 26792 ft 435 kts 298°
2026-05-04 09:03 -33.30355 149.39480 27174 ft 437 kts 298°
2026-05-04 09:04 -33.28978 149.36231 27582 ft 439 kts 298°
2026-05-04 09:04 -33.27609 149.33002 27950 ft 441 kts 298°
2026-05-04 09:04 -33.26215 149.29721 28319 ft 444 kts 298°
2026-05-04 09:04 -33.24819 149.26434 28697 ft 446 kts 298°
2026-05-04 09:05 -33.23447 149.23100 29055 ft 449 kts 295°
2026-05-04 09:05 -33.22270 149.19633 29401 ft 451 kts 293°
2026-05-04 09:05 -33.21119 149.16139 29744 ft 454 kts 293°
2026-05-04 09:05 -33.19953 149.12625 30205 ft 453 kts 294°
2026-05-04 09:06 -33.18805 149.09178 31198 ft 438 kts 293°
2026-05-04 09:07 -33.10925 148.85758 34241 ft 435 kts 295°
2026-05-04 09:08 -33.09629 148.82529 34229 ft 433 kts 296°
2026-05-04 09:08 -33.08313 148.79310 34105 ft 430 kts 296°
2026-05-04 09:08 -33.06999 148.76087 34113 ft 432 kts 296°
2026-05-04 09:09 -33.04391 148.69679 34114 ft 431 kts 296°
2026-05-04 09:09 -33.01766 148.63236 34113 ft 431 kts 296°
2026-05-04 09:10 -32.99164 148.56861 34117 ft 431 kts 296°
2026-05-04 09:10 -32.96546 148.50459 34117 ft 431 kts 296°
2026-05-04 09:11 -32.93909 148.44026 34116 ft 431 kts 296°
2026-05-04 09:11 -32.91299 148.37667 34116 ft 431 kts 296°
2026-05-04 09:12 -32.88673 148.31280 34119 ft 428 kts 296°
2026-05-04 09:14 -32.78217 148.05972 34116 ft 428 kts 296°
2026-05-04 09:14 -32.75589 147.99638 34116 ft 428 kts 296°
2026-05-04 09:15 -32.72956 147.93304 34117 ft 428 kts 296°
2026-05-04 09:15 -32.70333 147.87007 34118 ft 428 kts 296°
2026-05-04 09:17 -32.58453 147.58622 34115 ft 428 kts 296°
2026-05-04 09:18 -32.55791 147.52293 34115 ft 428 kts 296°
2026-05-04 09:18 -32.53141 147.46004 34115 ft 428 kts 296°
2026-05-04 09:19 -32.50480 147.39700 34116 ft 428 kts 296°
2026-05-04 09:19 -32.47808 147.33378 34115 ft 430 kts 296°
2026-05-04 09:20 -32.45581 147.28122 34116 ft 430 kts 296°
2026-05-04 09:20 -32.42471 147.20790 34118 ft 430 kts 296°
2026-05-04 09:21 -32.39787 147.14476 34121 ft 430 kts 296°
2026-05-04 09:21 -32.37536 147.09190 34125 ft 431 kts 296°
2026-05-04 09:22 -32.34835 147.02855 34124 ft 431 kts 296°
2026-05-04 09:22 -32.31903 146.96765 34125 ft 432 kts 303°
2026-05-04 09:23 -32.28535 146.90870 34124 ft 432 kts 302°
2026-05-04 09:23 -32.25205 146.84983 34124 ft 431 kts 302°
2026-05-04 09:25 -32.11952 146.61675 34129 ft 427 kts 302°
2026-05-04 09:26 -32.08640 146.55872 34129 ft 427 kts 302°
2026-05-04 09:26 -32.05312 146.50052 34130 ft 427 kts 302°
2026-05-04 09:27 -32.01987 146.44244 34131 ft 427 kts 302°
2026-05-04 09:27 -31.98669 146.38459 34129 ft 427 kts 302°
2026-05-04 09:28 -31.95343 146.32669 34129 ft 427 kts 302°
2026-05-04 09:28 -31.92023 146.26896 34129 ft 430 kts 303°
2026-05-04 09:29 -31.88665 146.21069 34128 ft 430 kts 303°
2026-05-04 09:29 -31.85312 146.15257 34129 ft 430 kts 303°
2026-05-04 09:30 -31.81949 146.09439 34130 ft 430 kts 303°
2026-05-04 09:30 -31.78618 146.03683 34129 ft 431 kts 303°
2026-05-04 09:31 -31.75241 145.97855 34130 ft 432 kts 303°
2026-05-04 09:31 -31.71875 145.92060 34130 ft 427 kts 303°
2026-05-04 09:32 -31.68525 145.86298 34127 ft 427 kts 303°
2026-05-04 09:34 -31.55146 145.63309 34136 ft 429 kts 303°
2026-05-04 09:34 -31.51797 145.57521 34132 ft 429 kts 303°
2026-05-04 09:35 -31.48461 145.51772 34137 ft 429 kts 303°
2026-05-04 09:35 -31.45111 145.46010 34134 ft 430 kts 303°
2026-05-04 09:37 -31.31996 145.22763 34137 ft 432 kts 301°
2026-05-04 09:38 -31.28810 145.16831 34132 ft 432 kts 301°
2026-05-04 09:38 -31.25598 145.10897 34104 ft 432 kts 302°
2026-05-04 09:39 -31.22430 145.05063 34137 ft 426 kts 302°
2026-05-04 09:39 -31.19254 144.99219 34140 ft 429 kts 302°
2026-05-04 09:40 -31.16053 144.93339 34138 ft 429 kts 302°
2026-05-04 09:40 -31.12867 144.87496 34137 ft 429 kts 302°
2026-05-04 09:42 -31.00063 144.64103 34140 ft 430 kts 302°
2026-05-04 09:43 -30.96844 144.58242 34141 ft 430 kts 302°
2026-05-04 09:43 -30.93618 144.52380 34143 ft 430 kts 302°
2026-05-04 09:44 -30.90395 144.46530 34143 ft 432 kts 302°
2026-05-04 09:46 -30.77423 144.23076 34151 ft 434 kts 302°
2026-05-04 09:46 -30.74146 144.17172 34148 ft 435 kts 302°
2026-05-04 09:47 -30.70876 144.11291 34133 ft 432 kts 302°
2026-05-04 09:49 -30.57915 143.88063 34143 ft 429 kts 302°
2026-05-04 09:51 -30.46502 143.67721 34155 ft 432 kts 302°
2026-05-04 09:51 -30.43218 143.61887 34158 ft 432 kts 302°
2026-05-04 09:52 -30.39935 143.56065 34157 ft 432 kts 302°
2026-05-04 09:52 -30.36658 143.50259 34160 ft 432 kts 302°
2026-05-04 09:53 -30.33382 143.44465 34165 ft 433 kts 302°
2026-05-04 09:53 -30.30078 143.38629 34165 ft 433 kts 302°
2026-05-04 09:54 -30.26778 143.32810 34169 ft 433 kts 302°
2026-05-04 09:54 -30.23487 143.27015 34167 ft 433 kts 302°
2026-05-04 09:55 -30.20184 143.21207 34170 ft 434 kts 302°
2026-05-04 09:55 -30.16863 143.15376 34169 ft 434 kts 302°
2026-05-04 09:56 -30.13557 143.09578 34171 ft 434 kts 302°
2026-05-04 09:56 -30.10234 143.03761 34170 ft 434 kts 303°
2026-05-04 09:57 -30.06946 142.98012 34172 ft 438 kts 303°
2026-05-04 09:57 -30.03612 142.92190 34170 ft 438 kts 303°
2026-05-04 09:58 -30.00272 142.86368 34170 ft 438 kts 303°
2026-05-04 09:58 -29.96914 142.80524 34170 ft 438 kts 303°
2026-05-04 10:00 -29.83058 142.57423 34177 ft 440 kts 305°
2026-05-04 10:02 -29.70522 142.37436 36312 ft 444 kts 305°
2026-05-04 10:04 -29.58146 142.17828 36183 ft 435 kts 305°
2026-05-04 10:04 -29.54592 142.12215 36183 ft 435 kts 305°
2026-05-04 10:05 -29.51038 142.06609 36185 ft 435 kts 305°
2026-05-04 10:05 -29.47493 142.01025 36180 ft 436 kts 305°
2026-05-04 10:06 -29.43925 141.95413 36185 ft 436 kts 305°
2026-05-04 10:06 -29.40361 141.89815 36183 ft 436 kts 305°
2026-05-04 10:08 -29.28451 141.71160 36189 ft 437 kts 305°
2026-05-04 10:08 -29.24868 141.65564 36191 ft 437 kts 305°
2026-05-04 10:09 -29.21270 141.59953 36191 ft 437 kts 305°
2026-05-04 10:09 -29.17686 141.54371 36189 ft 432 kts 305°
2026-05-04 10:10 -29.14134 141.48847 36189 ft 432 kts 305°
2026-05-04 10:10 -29.10596 141.43351 36190 ft 432 kts 305°
2026-05-04 10:11 -29.07036 141.37828 36190 ft 432 kts 305°
2026-05-04 10:11 -29.03465 141.32296 36193 ft 436 kts 305°
2026-05-04 10:12 -28.99864 141.26725 36189 ft 435 kts 305°
2026-05-04 10:12 -28.96261 141.21157 36190 ft 435 kts 305°
2026-05-04 10:13 -28.92656 141.15596 36187 ft 435 kts 306°
2026-05-04 10:13 -28.89066 141.10064 36189 ft 436 kts 305°
2026-05-04 10:14 -28.85464 141.04520 36191 ft 438 kts 306°
2026-05-04 10:16 -28.70952 140.82261 36176 ft 438 kts 306°
2026-05-04 10:16 -28.67328 140.76723 36191 ft 436 kts 306°
2026-05-04 10:17 -28.63713 140.71202 36193 ft 436 kts 306°
2026-05-04 10:19 -28.49170 140.49070 36191 ft 439 kts 306°
2026-05-04 10:19 -28.45517 140.43530 36193 ft 439 kts 306°
2026-05-04 10:20 -28.41854 140.37980 36193 ft 439 kts 306°
2026-05-04 10:20 -28.38190 140.32436 36193 ft 439 kts 306°
2026-05-04 10:21 -28.34540 140.26923 36195 ft 439 kts 306°
2026-05-04 10:21 -28.30890 140.21415 36196 ft 439 kts 306°
2026-05-04 10:22 -28.25362 140.13085 36198 ft 442 kts 306°
2026-05-04 10:23 -28.21674 140.07540 36198 ft 437 kts 306°
2026-05-04 10:25 -28.07029 139.85585 36216 ft 438 kts 306°
2026-05-04 10:25 -28.03349 139.80085 36195 ft 438 kts 306°
2026-05-04 10:26 -27.99687 139.74618 36205 ft 438 kts 306°
2026-05-04 10:26 -27.95984 139.69099 36204 ft 441 kts 306°
2026-05-04 10:27 -27.92282 139.63586 36203 ft 440 kts 306°
2026-05-04 10:27 -27.88578 139.58079 36203 ft 441 kts 306°
2026-05-04 10:28 -27.84880 139.52588 36205 ft 441 kts 306°
2026-05-04 10:28 -27.81143 139.47047 36208 ft 443 kts 306°
2026-05-04 10:29 -27.77418 139.41529 36208 ft 442 kts 306°
2026-05-04 10:29 -27.73709 139.36043 36206 ft 438 kts 306°
2026-05-04 10:30 -27.70037 139.30617 36210 ft 438 kts 306°
2026-05-04 10:30 -27.66337 139.25158 36211 ft 438 kts 306°
2026-05-04 10:31 -27.62645 139.19717 36214 ft 438 kts 306°
2026-05-04 10:32 -27.49686 139.00672 36214 ft 439 kts 306°
2026-05-04 10:33 -27.45977 138.95236 36209 ft 439 kts 306°
2026-05-04 10:33 -27.42266 138.89805 36214 ft 439 kts 307°
2026-05-04 10:34 -27.38548 138.84370 36216 ft 442 kts 306°
2026-05-04 10:34 -27.34788 138.78880 36217 ft 443 kts 307°
2026-05-04 10:35 -27.31034 138.73407 36217 ft 443 kts 307°
2026-05-04 10:35 -27.27276 138.67933 36210 ft 439 kts 307°
2026-05-04 10:36 -27.23555 138.62521 36219 ft 439 kts 307°
2026-05-04 10:36 -27.19848 138.57135 36219 ft 439 kts 307°
2026-05-04 10:37 -27.16117 138.51722 36219 ft 439 kts 307°
2026-05-04 10:37 -27.12384 138.46311 36220 ft 439 kts 307°
2026-05-04 10:39 -26.99212 138.27270 36222 ft 442 kts 307°
2026-05-04 10:40 -26.95440 138.21828 36222 ft 443 kts 307°
2026-05-04 10:40 -26.91654 138.16373 36223 ft 444 kts 307°
2026-05-04 10:41 -26.87880 138.10958 36220 ft 444 kts 307°
2026-05-04 10:41 -26.84081 138.05510 36221 ft 444 kts 307°
2026-05-04 10:42 -26.80280 138.00060 36223 ft 442 kts 307°
2026-05-04 10:42 -26.76503 137.94651 36222 ft 441 kts 307°
2026-05-04 10:43 -26.72748 137.89278 36222 ft 441 kts 307°
2026-05-04 10:45 -26.57630 137.67719 36223 ft 442 kts 307°
2026-05-04 10:45 -26.53859 137.62356 36222 ft 442 kts 307°
2026-05-04 10:46 -26.50050 137.56947 36223 ft 443 kts 307°
2026-05-04 10:46 -26.46237 137.51539 36222 ft 443 kts 307°
2026-05-04 10:47 -26.42425 137.46138 36222 ft 443 kts 307°
2026-05-04 10:47 -26.38613 137.40744 36222 ft 443 kts 307°
2026-05-04 10:49 -26.23387 137.19262 36226 ft 442 kts 307°
2026-05-04 10:50 -26.19582 137.13910 36221 ft 442 kts 307°
2026-05-04 10:52 -26.04345 136.92538 36222 ft 444 kts 307°
2026-05-04 10:52 -26.00520 136.87187 36221 ft 443 kts 307°
2026-05-04 10:54 -25.85804 136.66672 36209 ft 442 kts 307°
2026-05-04 10:56 -25.70469 136.45386 36219 ft 443 kts 307°
2026-05-04 10:57 -25.66604 136.40038 36226 ft 444 kts 307°
2026-05-04 10:57 -25.62734 136.34690 36220 ft 445 kts 307°
2026-05-04 10:58 -25.58866 136.29350 36227 ft 444 kts 307°
2026-05-04 10:58 -25.54995 136.24012 36224 ft 445 kts 307°
2026-05-04 10:59 -25.51159 136.18728 36227 ft 445 kts 307°
2026-05-04 10:59 -25.47284 136.13396 36224 ft 447 kts 307°
2026-05-04 11:00 -25.43377 136.08028 36228 ft 447 kts 307°
2026-05-04 11:02 -25.27815 135.86702 36223 ft 448 kts 307°
2026-05-04 11:05 -24.98298 135.46517 36232 ft 452 kts 307°
2026-05-04 11:06 -24.94333 135.41145 36240 ft 449 kts 307°
2026-05-04 11:06 -24.90386 135.35804 36239 ft 450 kts 307°
2026-05-04 11:10 -24.62714 134.98520 36231 ft 455 kts 307°
2026-05-04 11:12 -24.46774 134.77174 36229 ft 452 kts 307°
2026-05-04 11:12 -24.42791 134.71855 36232 ft 449 kts 307°
2026-05-04 11:13 -24.38849 134.66597 36235 ft 450 kts 307°
2026-05-04 11:13 -24.34877 134.61304 36241 ft 450 kts 307°